Weather in Rybnoye

Russia / Kurgan Oblast     54°23′54″N   63°30′39″E
temp.,
°C
wind,
m/s
gust,
m/s
humid.,
%
clouds,
%
prec.,
mm/h
press.,
hPa
HPBL,
m
10 april, sat
sat1023:00+2ene2394100 0.0 103247
02:00+1ese229494 0.0 103222
05:000ese229475 0.0 103429
08:000sse35100100 0.0 1036231
11:00+1sse3499100 0.0 1037314
14:00+3sse4595100 0.0 1037350
17:00+4sse349196 0.0 1038346
20:00+2sse339265 0.0 103934
11 april, sun
sun1123:00+2s2395100 0.0 103941
02:00+2s3493100 0.0 103986
05:00+2s359758 0.0 1039122
08:00+2s379739 0.0 1040213
11:00+6s467366 0.0 1039415
14:00+9ssw575797 0.0 1038533
17:00+10ssw5861100 0.0 1037518
20:00+6ssw4777100 0.0 1037121
12 april, mon
mon1223:00+4ssw4883100 0.0 1037136
02:00+3sw488252 0.0 1037134
05:00+2sw468014 0.0 103795
08:00+4wsw367426 0.0 1037150
11:00+10wsw345880 0.0 1036349
14:00+13w235496 0.0 1035628
17:00+14nnw2357100 0.0 1035671
20:00+10n3686100 0.0 1036115
13 april, tue
tue1323:00+8n3494100 0.0 103691
02:00+7nne2396100 0.0 103655
05:00+6nne2395100 0.0 103742
08:00+7ne2392100 0.0 1037132
11:00+11ene236732 0.0 1037517
14:00+14e22495 0.0 1036889
17:00+15e11445 0.0 1035974
20:00+12ese22582 0.0 103510
14 april, wed
wed1423:00+10sse22655 0.0 103415
02:00+8ssw3379100 0.0 103331
05:00+7sw338966 0.0 103330
08:00+9sw358743 0.0 1032141
11:00+14sw44695 0.0 1030547
14:00+17wsw345715 0.0 10281030
17:00+17w345324 0.0 10271130
20:00+14wnw226761 0.0 102611